| time (UTC) | temp F | wind direction | speed knots | gust knots | rain 1hr in | rain 24hr in | rain mn in | humidity % | barometer mb |
| 20260508095112 | 57 | 99 | 3.5 | 0.0 | 0.00 | 0.00 | 0.04 | 71 | 1013.2 |
| 20260508094615 | 57 | 128 | 3.5 | 0.0 | 0.00 | 0.00 | 0.04 | 70 | 1013.3 |
| 20260508094123 | 57 | 65 | 3.5 | 0.0 | 0.00 | 0.00 | 0.04 | 71 | 1013.3 |
| 20260508093627 | 57 | 127 | 4.3 | 0.0 | 0.00 | 0.00 | 0.04 | 71 | 1013.2 |
| 20260508093133 | 57 | 62 | 4.3 | 0.0 | 0.00 | 0.00 | 0.04 | 73 | 1013.2 |
| 20260508092611 | 57 | 26 | 4.3 | 0.0 | 0.00 | 0.00 | 0.04 | 73 | 1013.2 |
| 20260508092114 | 56 | 128 | 3.5 | 0.0 | 0.00 | 0.00 | 0.04 | 74 | 1013.2 |
| 20260508090629 | 55 | 117 | 4.3 | 0.0 | 0.00 | 0.00 | 0.04 | 80 | 1013.3 |
| 20260508090128 | 55 | 186 | 4.3 | 0.0 | 0.00 | 0.00 | 0.04 | 81 | 1013.2 |
| 20260508085612 | 55 | 44 | 3.5 | 0.0 | 0.00 | 0.00 | 0.04 | 80 | 1013.2 |
| 20260508085112 | 54 | 125 | 3.5 | 0.0 | 0.00 | 0.00 | 0.04 | 84 | 1013.2 |
| 20260508084618 | 54 | 58 | 3.5 | 0.0 | 0.00 | 0.00 | 0.04 | 85 | 1013.2 |
| 20260508084122 | 53 | 105 | 3.5 | 0.0 | 0.00 | 0.00 | 0.04 | 85 | 1013.2 |
| 20260508083625 | 52 | 165 | 3.5 | 0.0 | 0.00 | 0.00 | 0.04 | 85 | 1013.2 |
| 20260508083128 | 52 | 113 | 3.5 | 0.0 | 0.00 | 0.00 | 0.04 | 85 | 1013.2 |
| 20260508082617 | 52 | 140 | 3.5 | 0.0 | 0.00 | 0.00 | 0.04 | 85 | 1013.1 |
| 20260508082119 | 52 | 142 | 3.5 | 0.0 | 0.00 | 0.00 | 0.04 | 86 | 1013.1 |
| 20260508081622 | 52 | 130 | 2.6 | 0.0 | 0.00 | 0.00 | 0.04 | 86 | 1013.1 |
| 20260508081121 | 52 | 157 | 1.7 | 0.0 | 0.00 | 0.00 | 0.04 | 87 | 1013.1 |
| 20260508080129 | 52 | 318 | 1.7 | 0.0 | 0.00 | 0.00 | 0.04 | 86 | 1013.0 |
| 20260508075613 | 52 | 38 | 1.7 | 0.0 | 0.00 | 0.00 | 0.04 | 86 | 1013.0 |
| 20260508074620 | 52 | 88 | 2.6 | 0.0 | 0.00 | 0.00 | 0.04 | 85 | 1013.0 |
| 20260508073631 | 52 | 133 | 1.7 | 0.0 | 0.00 | 0.00 | 0.04 | 84 | 1012.8 |
| 20260508072616 | 51 | 127 | 1.7 | 0.0 | 0.00 | 0.00 | 0.04 | 84 | 1012.6 |
| 20260508072120 | 51 | 140 | 0.9 | 0.0 | 0.00 | 0.00 | 0.04 | 84 | 1012.6 |
| 20260508071623 | 51 | 123 | 0.9 | 0.0 | 0.00 | 0.00 | 0.04 | 84 | 1012.5 |
| 20260508071131 | 51 | 99 | 0.0 | 0.0 | 0.00 | 0.00 | 0.04 | 84 | 1012.5 |
| 20260508070634 | 51 | 131 | 0.0 | 0.0 | 0.00 | 0.00 | 0.04 | 85 | 1012.5 |
| 20260508070120 | 51 | 131 | 0.9 | 0.0 | 0.00 | 0.00 | 0.04 | 85 | 1012.7 |
| 20260508065618 | 51 | 61 | 0.9 | 0.0 | 0.00 | 0.00 | 0.04 | 86 | 1012.6 |
| 20260508064628 | 51 | 355 | 1.7 | 0.0 | 0.00 | 0.00 | 0.04 | 86 | 1012.7 |
| 20260508064126 | 51 | 324 | 0.9 | 0.0 | 0.00 | 0.00 | 0.04 | 85 | 1012.7 |
| 20260508063613 | 51 | 78 | 1.7 | 0.0 | 0.00 | 0.00 | 0.04 | 85 | 1012.8 |
| 20260508063117 | 51 | 240 | 1.7 | 0.0 | 0.00 | 0.00 | 0.03 | 84 | 1012.8 |
| 20260508062621 | 51 | 153 | 2.6 | 0.0 | 0.00 | 0.00 | 0.03 | 84 | 1012.8 |
| 20260508062123 | 51 | 16 | 1.7 | 0.0 | 0.00 | 0.00 | 0.03 | 84 | 1012.8 |
| 20260508061626 | 51 | 189 | 0.9 | 0.0 | 0.00 | 0.00 | 0.02 | 84 | 1012.7 |
| 20260508061125 | 51 | 195 | 0.9 | 0.0 | 0.00 | 0.00 | 0.02 | 83 | 1012.5 |
| 20260508060113 | 51 | 232 | 2.6 | 0.0 | 0.00 | 0.00 | 0.02 | 82 | 1012.4 |
| 20260508055622 | 52 | 65 | 2.6 | 0.0 | 0.00 | 0.00 | 0.02 | 81 | 1012.3 |
| 20260508055128 | 52 | 292 | 2.6 | 0.0 | 0.00 | 0.00 | 0.02 | 80 | 1012.3 |
| 20260508054630 | 52 | 74 | 2.6 | 0.0 | 0.00 | 0.00 | 0.02 | 79 | 1012.1 |
| 20260508054126 | 53 | 60 | 2.6 | 0.0 | 0.00 | 0.00 | 0.02 | 78 | 1012.1 |
| 20260508053612 | 53 | 111 | 2.6 | 0.0 | 0.00 | 0.00 | 0.00 | 76 | 1012.2 |
| 20260508052620 | 53 | 145 | 2.6 | 0.0 | 0.00 | 0.00 | 0.00 | 75 | 1011.8 |
| 20260508052123 | 53 | 128 | 2.6 | 0.0 | 0.00 | 0.00 | 0.00 | 73 | 1011.7 |
| 20260508051627 | 53 | 146 | 2.6 | 0.0 | 0.00 | 0.00 | 0.00 | 73 | 1011.8 |
| 20260508051125 | 53 | 120 | 3.5 | 0.0 | 0.00 | 0.00 | 0.00 | 73 | 1011.9 |
| 20260508050629 | 53 | 57 | 3.5 | 0.0 | 0.00 | 0.00 | 0.00 | 73 | 1012.0 |
| 20260508050130 | 53 | 77 | 3.5 | 0.0 | 0.00 | 0.00 | 0.00 | 72 | 1012.0 |
| 20260508045614 | 53 | 22 | 2.6 | 0.0 | 0.00 | 0.00 | 0.00 | 72 | 1012.0 |
| 20260508044621 | 54 | 61 | 3.5 | 0.0 | 0.00 | 0.00 | 0.00 | 72 | 1011.9 |
| 20260508044128 | 54 | 335 | 3.5 | 0.0 | 0.00 | 0.00 | 0.00 | 72 | 1012.0 |
| 20260508043631 | 54 | 122 | 2.6 | 0.0 | 0.00 | 0.00 | 0.00 | 71 | 1011.9 |
| 20260508043122 | 54 | 173 | 3.5 | 0.0 | 0.00 | 0.00 | 0.00 | 71 | 1011.7 |
| 20260508042618 | 54 | 102 | 4.3 | 0.0 | 0.00 | 0.00 | 0.00 | 70 | 1011.7 |
| 20260508041626 | 54 | 184 | 3.5 | 0.0 | 0.00 | 0.00 | 0.00 | 69 | 1011.7 |
| 20260508041129 | 54 | 28 | 3.5 | 0.0 | 0.00 | 0.00 | 0.00 | 69 | 1011.6 |
| 20260508040117 | 54 | 105 | 2.6 | 0.0 | 0.00 | 0.00 | 0.00 | 70 | 1011.5 |
| 20260508035621 | 54 | 123 | 2.6 | 0.0 | 0.00 | 0.00 | 0.00 | 70 | 1011.5 |
| 20260508035124 | 54 | 72 | 2.6 | 0.0 | 0.00 | 0.00 | 0.00 | 70 | 1011.6 |
| 20260508034626 | 54 | 38 | 1.7 | 0.0 | 0.00 | 0.00 | 0.00 | 71 | 1011.6 |
| 20260508034126 | 54 | 105 | 1.7 | 0.0 | 0.00 | 0.00 | 0.00 | 70 | 1011.9 |
| 20260508033629 | 54 | 139 | 2.6 | 0.0 | 0.00 | 0.00 | 0.00 | 70 | 1011.9 |
| 20260508033113 | 54 | 242 | 4.3 | 0.0 | 0.00 | 0.00 | 0.00 | 70 | 1012.0 |
| 20260508032126 | 54 | 119 | 3.5 | 0.0 | 0.00 | 0.00 | 0.00 | 70 | 1011.8 |
| 20260508031630 | 54 | 180 | 1.7 | 0.0 | 0.00 | 0.00 | 0.00 | 70 | 1011.7 |
| 20260508030118 | 54 | 55 | 2.6 | 0.0 | 0.00 | 0.00 | 0.00 | 70 | 1011.5 |
| 20260508025621 | 54 | 229 | 2.6 | 0.0 | 0.00 | 0.00 | 0.00 | 70 | 1011.5 |
| 20260508025123 | 54 | 88 | 1.7 | 0.0 | 0.00 | 0.00 | 0.00 | 71 | 1011.6 |
| 20260508024125 | 54 | 355 | 0.9 | 0.0 | 0.00 | 0.00 | 0.00 | 71 | 1011.5 |
| 20260508023627 | 54 | 67 | 1.7 | 0.0 | 0.00 | 0.00 | 0.00 | 71 | 1011.6 |
| 20260508023128 | 54 | 331 | 1.7 | 0.0 | 0.00 | 0.00 | 0.00 | 70 | 1011.6 |
| 20260508022630 | 54 | 94 | 1.7 | 0.0 | 0.00 | 0.00 | 0.00 | 70 | 1011.5 |
| 20260508022118 | 54 | 360 | 1.7 | 0.0 | 0.00 | 0.00 | 0.00 | 70 | 1011.4 |
| 20260508021620 | 55 | 301 | 1.7 | 0.0 | 0.00 | 0.00 | 0.00 | 70 | 1011.6 |
| 20260508021130 | 55 | 34 | 0.9 | 0.0 | 0.00 | 0.00 | 0.00 | 70 | 1011.6 |
| 20260508020633 | 55 | 316 | 0.9 | 0.0 | 0.00 | 0.00 | 0.00 | 69 | 1011.6 |
| 20260508020118 | 55 | 5 | 1.7 | 0.0 | 0.00 | 0.00 | 0.00 | 69 | 1011.7 |
| 20260508015617 | 55 | 190 | 2.6 | 0.0 | 0.00 | 0.00 | 0.00 | 68 | 1011.7 |
| 20260508015119 | 55 | 198 | 1.7 | 0.0 | 0.00 | 0.00 | 0.00 | 67 | 1011.5 |
| 20260508014621 | 55 | 130 | 0.9 | 0.0 | 0.00 | 0.00 | 0.00 | 67 | 1011.5 |
| 20260508014125 | 55 | 5 | 0.9 | 0.0 | 0.00 | 0.00 | 0.00 | 67 | 1011.3 |
| 20260508013111 | 55 | 317 | 0.9 | 0.0 | 0.00 | 0.00 | 0.00 | 67 | 1011.1 |
| 20260508012119 | 55 | 52 | 0.9 | 0.0 | 0.00 | 0.00 | 0.00 | 66 | 1011.2 |
| 20260508011624 | 55 | 32 | 0.9 | 0.0 | 0.00 | 0.00 | 0.00 | 67 | 1011.4 |
| 20260508011128 | 55 | 33 | 0.9 | 0.0 | 0.00 | 0.00 | 0.00 | 66 | 1011.4 |
| 20260508010610 | 56 | 321 | 0.9 | 0.0 | 0.00 | 0.00 | 0.00 | 66 | 1011.5 |
| 20260508010113 | 56 | 40 | 0.9 | 0.0 | 0.00 | 0.00 | 0.00 | 65 | 1011.6 |
| 20260508005621 | 56 | 17 | 0.9 | 0.0 | 0.00 | 0.00 | 0.00 | 64 | 1011.7 |
| 20260508005126 | 56 | 206 | 0.9 | 0.0 | 0.00 | 0.00 | 0.00 | 64 | 1011.8 |
| 20260508004630 | 56 | 288 | 0.9 | 0.0 | 0.00 | 0.00 | 0.00 | 65 | 1011.8 |
| 20260508004127 | 56 | 155 | 0.9 | 0.0 | 0.00 | 0.00 | 0.00 | 63 | 1012.0 |
| 20260508003630 | 56 | 348 | 1.7 | 0.0 | 0.00 | 0.00 | 0.00 | 63 | 1012.0 |
| 20260508003113 | 57 | 227 | 2.6 | 0.0 | 0.00 | 0.00 | 0.00 | 62 | 1012.0 |
| 20260508002616 | 57 | 182 | 3.5 | 0.0 | 0.00 | 0.00 | 0.00 | 61 | 1012.1 |
| 20260508002122 | 57 | 190 | 2.6 | 0.0 | 0.00 | 0.00 | 0.00 | 61 | 1012.1 |
| 20260508001626 | 57 | 155 | 1.7 | 0.0 | 0.00 | 0.00 | 0.00 | 60 | 1012.0 |
| 20260508001128 | 57 | 124 | 1.7 | 0.0 | 0.00 | 0.00 | 0.00 | 59 | 1012.0 |
| 20260508000612 | 57 | 19 | 0.9 | 0.0 | 0.00 | 0.00 | 0.00 | 59 | 1012.1 |
| 20260508000114 | 57 | 260 | 0.9 | 0.0 | 0.00 | 0.00 | 0.00 | 59 | 1012.1 |
| 20260507235618 | 57 | 99 | 2.6 | 0.0 | 0.00 | 0.00 | 0.01 | 60 | 1012.3 |
| 20260507234627 | 56 | 30 | 1.7 | 0.0 | 0.00 | 0.00 | 0.01 | 63 | 1012.5 |
| 20260507234117 | 56 | 310 | 1.7 | 0.0 | 0.00 | 0.00 | 0.01 | 65 | 1012.6 |
| 20260507233618 | 55 | 15 | 2.6 | 0.0 | 0.00 | 0.00 | 0.01 | 65 | 1012.5 |
| 20260507233123 | 55 | 304 | 3.5 | 0.0 | 0.00 | 0.00 | 0.01 | 66 | 1012.5 |
| 20260507232620 | 55 | 305 | 3.5 | 0.0 | 0.00 | 0.00 | 0.01 | 68 | 1012.7 |
| 20260507232129 | 55 | 312 | 3.5 | 0.0 | 0.00 | 0.00 | 0.01 | 67 | 1012.7 |
| 20260507231613 | 55 | 303 | 3.5 | 0.0 | 0.00 | 0.00 | 0.01 | 67 | 1012.8 |
| 20260507230620 | 55 | 323 | 1.7 | 0.0 | 0.00 | 0.00 | 0.01 | 67 | 1012.9 |
| 20260507230124 | 56 | 319 | 1.7 | 0.0 | 0.00 | 0.00 | 0.01 | 67 | 1012.9 |
| 20260507225626 | 56 | 316 | 0.9 | 0.0 | 0.00 | 0.00 | 0.01 | 67 | 1013.0 |
| 20260507225126 | 56 | 330 | 0.9 | 0.0 | 0.00 | 0.00 | 0.01 | 66 | 1013.0 |
| 20260507224629 | 56 | 355 | 1.7 | 0.0 | 0.00 | 0.00 | 0.01 | 67 | 1013.0 |
| 20260507224130 | 56 | 78 | 1.7 | 0.0 | 0.00 | 0.00 | 0.01 | 65 | 1013.1 |
| 20260507223613 | 56 | 105 | 1.7 | 0.0 | 0.00 | 0.00 | 0.01 | 65 | 1013.1 |
| 20260507223117 | 56 | 330 | 0.9 | 0.0 | 0.00 | 0.00 | 0.01 | 66 | 1012.9 |
| 20260507222626 | 57 | 280 | 1.7 | 0.0 | 0.00 | 0.00 | 0.01 | 67 | 1013.0 |
| 20260507222134 | 57 | 318 | 1.7 | 0.0 | 0.00 | 0.00 | 0.01 | 63 | 1013.0 |
| 20260507221120 | 57 | 9 | 1.7 | 0.0 | 0.00 | 0.00 | 0.01 | 64 | 1013.0 |
| 20260507220624 | 57 | 327 | 0.9 | 0.0 | 0.00 | 0.00 | 0.01 | 64 | 1013.1 |
| 20260507220127 | 57 | 31 | 1.7 | 0.0 | 0.00 | 0.00 | 0.01 | 63 | 1013.2 |
| 20260507215118 | 57 | 289 | 1.7 | 0.0 | 0.00 | 0.00 | 0.01 | 63 | 1013.2 |
| 20260507214620 | 57 | 213 | 1.7 | 0.0 | 0.00 | 0.00 | 0.01 | 63 | 1013.4 |
| 20260507214124 | 57 | 320 | 1.7 | 0.0 | 0.00 | 0.00 | 0.01 | 63 | 1013.3 |
| 20260507213627 | 57 | 345 | 1.7 | 0.0 | 0.00 | 0.00 | 0.01 | 62 | 1013.3 |
| 20260507212613 | 58 | 284 | 1.7 | 0.0 | 0.00 | 0.00 | 0.01 | 62 | 1013.3 |
| 20260507212118 | 58 | 325 | 1.7 | 0.0 | 0.00 | 0.00 | 0.01 | 61 | 1013.2 |
| 20260507211622 | 58 | 68 | 1.7 | 0.0 | 0.00 | 0.00 | 0.01 | 60 | 1013.2 |
| 20260507211131 | 59 | 134 | 1.7 | 0.0 | 0.00 | 0.00 | 0.01 | 59 | 1013.1 |
| 20260507210635 | 59 | 136 | 0.9 | 0.0 | 0.00 | 0.00 | 0.01 | 59 | 1013.1 |
| 20260507205619 | 59 | 188 | 0.9 | 0.0 | 0.00 | 0.00 | 0.01 | 58 | 1012.9 |
| 20260507205123 | 59 | 51 | 0.9 | 0.0 | 0.00 | 0.00 | 0.01 | 57 | 1012.7 |
| 20260507204626 | 59 | 346 | 1.7 | 0.0 | 0.00 | 0.00 | 0.01 | 58 | 1012.6 |
| 20260507204127 | 59 | 325 | 2.6 | 0.0 | 0.00 | 0.00 | 0.01 | 58 | 1012.4 |
| 20260507203630 | 59 | 336 | 1.7 | 0.0 | 0.00 | 0.00 | 0.01 | 57 | 1012.5 |
| 20260507203113 | 60 | 289 | 2.6 | 0.0 | 0.00 | 0.00 | 0.01 | 57 | 1012.4 |
| 20260507202616 | 60 | 329 | 1.7 | 0.0 | 0.00 | 0.00 | 0.01 | 57 | 1012.2 |
| 20260507202123 | 60 | 331 | 0.9 | 0.0 | 0.00 | 0.00 | 0.01 | 55 | 1012.1 |
| 20260507201626 | 60 | 17 | 1.7 | 0.0 | 0.00 | 0.00 | 0.01 | 55 | 1012.1 |
| 20260507201125 | 60 | 90 | 3.5 | 0.0 | 0.00 | 0.00 | 0.01 | 54 | 1012.0 |
| 20260507200115 | 60 | 49 | 2.6 | 0.0 | 0.00 | 0.00 | 0.01 | 56 | 1011.9 |
| 20260507195623 | 60 | 262 | 2.6 | 0.0 | 0.00 | 0.00 | 0.01 | 55 | 1011.9 |
| 20260507195127 | 60 | 64 | 1.7 | 0.0 | 0.00 | 0.00 | 0.01 | 55 | 1011.7 |
| 20260507194631 | 60 | 117 | 2.6 | 0.0 | 0.00 | 0.00 | 0.01 | 55 | 1011.7 |
| 20260507194128 | 61 | 121 | 3.5 | 0.0 | 0.00 | 0.00 | 0.01 | 55 | 1011.6 |
| 20260507192128 | 61 | 140 | 3.5 | 0.0 | 0.00 | 0.00 | 0.01 | 55 | 1011.3 |
| 20260507191115 | 60 | 128 | 0.9 | 0.0 | 0.00 | 0.00 | 0.01 | 55 | 1011.2 |
| 20260507190624 | 61 | 312 | 1.7 | 0.0 | 0.00 | 0.00 | 0.01 | 54 | 1010.8 |
| 20260507190126 | 61 | 317 | 3.5 | 0.0 | 0.00 | 0.00 | 0.01 | 54 | 1010.8 |
| 20260507185630 | 61 | 313 | 3.5 | 0.0 | 0.00 | 0.00 | 0.01 | 54 | 1010.8 |
| 20260507185115 | 62 | 316 | 2.6 | 0.0 | 0.00 | 0.00 | 0.01 | 53 | 1010.7 |
| 20260507184618 | 63 | 314 | 1.7 | 0.0 | 0.00 | 0.00 | 0.01 | 51 | 1010.7 |
| 20260507184125 | 64 | 317 | 0.9 | 0.0 | 0.00 | 0.00 | 0.01 | 50 | 1010.7 |
| 20260507183629 | 64 | 15 | 0.9 | 0.0 | 0.00 | 0.00 | 0.01 | 48 | 1010.6 |
| 20260507183134 | 65 | 20 | 0.9 | 0.0 | 0.00 | 0.00 | 0.01 | 46 | 1010.6 |
| 20260507182611 | 65 | 351 | 1.7 | 0.0 | 0.00 | 0.00 | 0.01 | 46 | 1010.6 |
| 20260507182115 | 65 | 49 | 2.6 | 0.0 | 0.00 | 0.00 | 0.01 | 45 | 1010.7 |
| 20260507181617 | 66 | 18 | 1.7 | 0.0 | 0.00 | 0.00 | 0.01 | 45 | 1010.6 |
| 20260507181125 | 66 | 51 | 0.9 | 0.0 | 0.00 | 0.00 | 0.01 | 45 | 1010.6 |
| 20260507180628 | 66 | 5 | 0.0 | 0.0 | 0.00 | 0.00 | 0.01 | 46 | 1010.7 |
| 20260507174627 | 66 | 165 | 0.9 | 0.0 | 0.00 | 0.00 | 0.01 | 44 | 1010.6 |
| 20260507174130 | 66 | 157 | 2.6 | 0.0 | 0.00 | 0.00 | 0.01 | 44 | 1010.6 |
| 20260507173120 | 67 | 139 | 4.3 | 0.0 | 0.00 | 0.00 | 0.01 | 40 | 1010.6 |
| 20260507172135 | 68 | 125 | 4.3 | 0.0 | 0.00 | 0.00 | 0.01 | 39 | 1010.5 |
| 20260507171619 | 68 | 171 | 4.3 | 0.0 | 0.00 | 0.00 | 0.01 | 38 | 1010.5 |
| 20260507171116 | 68 | 182 | 4.3 | 0.0 | 0.00 | 0.00 | 0.01 | 38 | 1010.4 |
| 20260507170619 | 69 | 146 | 1.7 | 0.0 | 0.00 | 0.00 | 0.01 | 38 | 1010.4 |
| 20260507170127 | 68 | 110 | 0.9 | 0.0 | 0.00 | 0.00 | 0.01 | 40 | 1010.4 |
| 20260507165611 | 67 | 281 | 0.9 | 0.0 | 0.00 | 0.00 | 0.01 | 39 | 1010.4 |
| 20260507165114 | 66 | 138 | 1.7 | 0.0 | 0.00 | 0.00 | 0.01 | 39 | 1010.4 |
| 20260507164617 | 66 | 155 | 1.7 | 0.0 | 0.00 | 0.00 | 0.01 | 39 | 1010.4 |
| 20260507164120 | 67 | 126 | 0.9 | 0.0 | 0.00 | 0.00 | 0.01 | 40 | 1010.4 |
| 20260507162613 | 66 | 139 | 1.7 | 0.0 | 0.00 | 0.00 | 0.01 | 41 | 1010.4 |
| 20260507162115 | 67 | 138 | 2.6 | 0.0 | 0.00 | 0.00 | 0.01 | 43 | 1010.4 |
| 20260507161618 | 67 | 136 | 2.6 | 0.0 | 0.00 | 0.00 | 0.01 | 45 | 1010.4 |
| 20260507161121 | 67 | 140 | 2.6 | 0.0 | 0.00 | 0.00 | 0.01 | 41 | 1010.4 |
| 20260507160625 | 67 | 97 | 2.6 | 0.0 | 0.00 | 0.00 | 0.01 | 39 | 1010.4 |
| 20260507160129 | 68 | 133 | 2.6 | 0.0 | 0.00 | 0.00 | 0.01 | 39 | 1010.5 |
| 20260507155611 | 68 | 118 | 3.5 | 0.0 | 0.00 | 0.00 | 0.01 | 39 | 1010.4 |
| 20260507155114 | 68 | 159 | 3.5 | 0.0 | 0.00 | 0.00 | 0.01 | 36 | 1010.4 |
| 20260507154616 | 69 | 175 | 3.5 | 0.0 | 0.00 | 0.00 | 0.01 | 37 | 1010.4 |
| 20260507153129 | 70 | 277 | 3.5 | 0.0 | 0.00 | 0.00 | 0.01 | 34 | 1010.5 |
| 20260507152614 | 70 | 355 | 3.5 | 0.0 | 0.00 | 0.00 | 0.01 | 35 | 1010.6 |
| 20260507152117 | 70 | 138 | 3.5 | 0.0 | 0.00 | 0.00 | 0.01 | 35 | 1010.7 |
| 20260507151620 | 69 | 65 | 2.6 | 0.0 | 0.00 | 0.00 | 0.01 | 35 | 1010.6 |
| 20260507151123 | 68 | 162 | 2.6 | 0.0 | 0.00 | 0.00 | 0.01 | 36 | 1010.7 |
| 20260507150625 | 68 | 152 | 3.5 | 0.0 | 0.00 | 0.00 | 0.01 | 37 | 1010.8 |
| 20260507150125 | 68 | 211 | 4.3 | 0.0 | 0.00 | 0.00 | 0.01 | 34 | 1010.9 |
| 20260507145619 | 69 | 137 | 4.3 | 0.0 | 0.00 | 0.00 | 0.01 | 35 | 1010.9 |
| 20260507145121 | 69 | 106 | 4.3 | 0.0 | 0.00 | 0.00 | 0.01 | 37 | 1010.9 |
| 20260507144626 | 69 | 185 | 3.5 | 0.0 | 0.00 | 0.00 | 0.01 | 35 | 1010.9 |
| 20260507143629 | 68 | 251 | 3.5 | 0.0 | 0.00 | 0.00 | 0.01 | 36 | 1011.0 |
| 20260507143130 | 68 | 190 | 3.5 | 0.0 | 0.00 | 0.00 | 0.01 | 36 | 1011.1 |
| 20260507142613 | 68 | 182 | 3.5 | 0.0 | 0.00 | 0.00 | 0.01 | 37 | 1011.1 |
| 20260507142117 | 68 | 99 | 2.6 | 0.0 | 0.00 | 0.00 | 0.01 | 41 | 1011.1 |
| 20260507141619 | 67 | 80 | 2.6 | 0.0 | 0.00 | 0.00 | 0.01 | 38 | 1011.2 |
| 20260507141123 | 67 | 228 | 1.7 | 0.0 | 0.00 | 0.00 | 0.01 | 37 | 1011.2 |
| 20260507140628 | 67 | 155 | 1.7 | 0.0 | 0.00 | 0.00 | 0.01 | 38 | 1011.3 |
| 20260507140113 | 66 | 131 | 1.7 | 0.0 | 0.00 | 0.00 | 0.01 | 42 | 1011.5 |
| 20260507135615 | 65 | 77 | 2.6 | 0.0 | 0.00 | 0.00 | 0.01 | 40 | 1011.5 |
| 20260507135119 | 64 | 11 | 3.5 | 0.0 | 0.00 | 0.00 | 0.01 | 46 | 1011.6 |
| 20260507134621 | 65 | 126 | 4.3 | 0.0 | 0.00 | 0.00 | 0.01 | 51 | 1011.8 |
| 20260507134128 | 66 | 123 | 4.3 | 0.0 | 0.00 | 0.00 | 0.01 | 51 | 1011.6 |
| 20260507133634 | 66 | 174 | 4.3 | 0.0 | 0.00 | 0.00 | 0.01 | 45 | 1011.5 |
| 20260507133117 | 66 | 108 | 4.3 | 0.0 | 0.00 | 0.00 | 0.01 | 45 | 1011.5 |
| 20260507132122 | 66 | 107 | 3.5 | 0.0 | 0.00 | 0.00 | 0.01 | 46 | 1011.5 |
| 20260507131626 | 67 | 117 | 2.6 | 0.0 | 0.00 | 0.00 | 0.01 | 44 | 1011.4 |
| 20260507130612 | 67 | 163 | 2.6 | 0.0 | 0.00 | 0.00 | 0.01 | 41 | 1011.6 |
| 20260507130115 | 66 | 109 | 2.6 | 0.0 | 0.00 | 0.00 | 0.01 | 42 | 1011.6 |
| 20260507125126 | 67 | 104 | 3.5 | 0.0 | 0.00 | 0.00 | 0.01 | 43 | 1011.6 |
| 20260507124610 | 67 | 114 | 2.6 | 0.0 | 0.00 | 0.00 | 0.01 | 43 | 1011.6 |
| 20260507124113 | 66 | 136 | 1.7 | 0.0 | 0.00 | 0.00 | 0.01 | 43 | 1011.7 |
| 20260507123616 | 65 | 71 | 1.7 | 0.0 | 0.00 | 0.00 | 0.01 | 47 | 1011.9 |
| 20260507123120 | 65 | 230 | 2.6 | 0.0 | 0.00 | 0.00 | 0.01 | 46 | 1011.9 |
| 20260507122116 | 66 | 49 | 2.6 | 0.0 | 0.00 | 0.00 | 0.01 | 46 | 1012.0 |
| 20260507121620 | 67 | 64 | 2.6 | 0.0 | 0.00 | 0.00 | 0.01 | 47 | 1012.1 |
| 20260507121119 | 68 | 115 | 2.6 | 0.0 | 0.00 | 0.00 | 0.01 | 45 | 1012.2 |
| 20260507120621 | 68 | 155 | 2.6 | 0.0 | 0.00 | 0.00 | 0.01 | 44 | 1012.2 |
| 20260507120125 | 68 | 94 | 2.6 | 0.0 | 0.00 | 0.00 | 0.01 | 43 | 1012.4 |
| 20260507115612 | 68 | 81 | 1.7 | 0.0 | 0.00 | 0.00 | 0.01 | 47 | 1012.4 |
| 20260507114620 | 67 | 121 | 2.6 | 0.0 | 0.00 | 0.00 | 0.01 | 46 | 1012.5 |
| 20260507114122 | 67 | 147 | 2.6 | 0.0 | 0.00 | 0.00 | 0.01 | 46 | 1012.4 |
| 20260507113627 | 67 | 166 | 2.6 | 0.0 | 0.00 | 0.00 | 0.01 | 47 | 1012.5 |
| 20260507113128 | 67 | 90 | 2.6 | 0.0 | 0.00 | 0.00 | 0.01 | 50 | 1012.7 |
| 20260507112612 | 67 | 101 | 2.6 | 0.0 | 0.00 | 0.00 | 0.01 | 48 | 1012.8 |
| 20260507112116 | 67 | 90 | 2.6 | 0.0 | 0.00 | 0.00 | 0.01 | 49 | 1012.7 |
| 20260507111618 | 66 | 74 | 2.6 | 0.0 | 0.00 | 0.00 | 0.01 | 52 | 1012.8 |
| 20260507111128 | 66 | 143 | 3.5 | 0.0 | 0.00 | 0.00 | 0.01 | 50 | 1012.8 |
| 20260507110634 | 65 | 94 | 4.3 | 0.0 | 0.00 | 0.00 | 0.01 | 51 | 1012.8 |
| 20260507110118 | 65 | 134 | 4.3 | 0.0 | 0.00 | 0.00 | 0.01 | 51 | 1012.8 |
| 20260507105619 | 65 | 127 | 4.3 | 0.0 | 0.00 | 0.00 | 0.01 | 52 | 1012.9 |
| 20260507105122 | 65 | 65 | 3.5 | 0.0 | 0.00 | 0.00 | 0.01 | 53 | 1012.9 |
| 20260507104111 | 65 | 67 | 2.6 | 0.0 | 0.00 | 0.00 | 0.01 | 53 | 1012.9 |
| 20260507103615 | 65 | 130 | 2.6 | 0.0 | 0.00 | 0.00 | 0.01 | 53 | 1012.9 |
| 20260507102621 | 65 | 31 | 2.6 | 0.0 | 0.00 | 0.00 | 0.01 | 52 | 1013.0 |
| 20260507102125 | 66 | 113 | 2.6 | 0.0 | 0.00 | 0.00 | 0.01 | 53 | 1012.9 |
| 20260507101628 | 66 | 106 | 2.6 | 0.0 | 0.00 | 0.00 | 0.01 | 49 | 1013.0 |
| 20260507101130 | 66 | 139 | 2.6 | 0.0 | 0.00 | 0.00 | 0.01 | 52 | 1013.0 |